Powrót do katalogu

STARLINK-11124

AktywnyŁącznośćVLEO
NORAD 59952·PAYLOAD·🇺🇸 United States

Wystrzelony Jun 5, 2024 z Cape Canaveral Space Force Station

Loading…

Następne Przeloty (najbliższe 24 godziny)

TLE

ŚwieżeSource: CelesTrak SupGP

Epoka: Sep 15, 2026, 01:56 UTC

1 59952C 24107H   26258.08104167 -.00079237  00000+0 -65254-3 0  2586
2 59952  53.1567  37.6592 0000999  84.4341 204.3257 15.69755155    15

Śledź STARLINK-11124 w czasie rzeczywistym z AllMySat

Download on the App Store